Time,TemperatureF,DewpointF,PressureIn,WindDirection,WindDirectionDegrees,WindSpeedMPH,WindSpeedGustMPH,Humidity,HourlyPrecipIn,Conditions,Clouds,dailyrainin,SoftwareType,DateUTC
2013-07-22 10:40:00,68.0,67.0,29.87,WSW,254,0.0,2.0,96,0.00,,,0.00,,2013-07-22 14:40:00,
2013-07-22 11:11:00,68.0,67.0,29.87,WSW,254,0.0,2.0,96,0.00,,,0.00,,2013-07-22 15:11:00,
2013-07-22 11:22:00,68.0,67.0,29.87,WSW,254,0.0,2.0,96,0.00,,,0.00,,2013-07-22 15:22:00,
2013-07-22 11:33:00,68.0,67.0,29.87,WSW,254,0.0,2.0,96,0.00,,,0.00,,2013-07-22 15:33:00,
2013-07-22 11:40:00,70.0,68.0,29.87,ESE,117,2.0,5.0,93,0.00,,,0.00,,2013-07-22 15:40:00,
2013-07-22 12:11:00,70.0,68.0,29.87,ESE,117,2.0,5.0,93,0.00,,,0.00,,2013-07-22 16:11:00,
2013-07-22 12:22:00,70.0,68.0,29.87,ESE,117,2.0,5.0,93,0.00,,,0.00,,2013-07-22 16:22:00,
2013-07-22 12:32:00,70.0,68.0,29.87,ESE,117,2.0,5.0,93,0.00,,,0.00,,2013-07-22 16:32:00,
2013-07-22 12:40:00,74.0,69.0,29.86,WSW,245,4.0,8.0,84,0.00,,,0.00,,2013-07-22 16:40:00,
2013-07-22 13:01:00,74.0,69.0,29.86,WSW,245,4.0,8.0,84,0.00,,,0.00,,2013-07-22 17:01:00,
2013-07-22 13:11:00,74.0,69.0,29.86,WSW,245,4.0,8.0,84,0.00,,,0.00,,2013-07-22 17:11:00,
2013-07-22 13:23:00,74.0,69.0,29.86,WSW,245,4.0,8.0,84,0.00,,,0.00,,2013-07-22 17:23:00,
2013-07-22 13:32:00,74.0,69.0,29.86,WSW,245,4.0,8.0,84,0.00,,,0.00,,2013-07-22 17:32:00,
2013-07-22 13:40:00,77.0,70.0,29.85,East,92,5.0,9.0,78,0.00,,,0.00,,2013-07-22 17:40:00,
2013-07-22 14:28:00,77.0,70.0,29.85,East,92,5.0,9.0,78,0.00,,,0.00,,2013-07-22 18:28:00,
2013-07-22 14:38:00,77.0,70.0,29.85,East,92,5.0,9.0,78,0.00,,,0.00,,2013-07-22 18:38:00,
2013-07-22 14:40:00,79.0,69.0,29.83,SSW,213,3.0,7.0,72,0.00,,,0.00,,2013-07-22 18:40:00,
2013-07-22 15:16:00,79.0,69.0,29.83,SSW,213,3.0,7.0,72,0.00,,,0.00,,2013-07-22 19:16:00,
2013-07-22 15:25:00,79.0,69.0,29.83,SSW,213,3.0,7.0,72,0.00,,,0.00,,2013-07-22 19:25:00,
2013-07-22 15:37:00,79.0,69.0,29.83,SSW,213,3.0,7.0,72,0.00,,,0.00,,2013-07-22 19:37:00,
2013-07-22 15:40:00,80.0,68.0,29.83,WSW,254,2.0,4.0,66,0.00,,,0.00,,2013-07-22 19:40:00,
2013-07-22 16:16:00,80.0,68.0,29.83,WSW,254,2.0,4.0,66,0.00,,,0.00,,2013-07-22 20:16:00,
2013-07-22 16:22:00,80.0,68.0,29.83,WSW,254,2.0,4.0,66,0.00,,,0.00,,2013-07-22 20:22:00,
2013-07-22 16:32:00,80.0,68.0,29.83,WSW,254,2.0,4.0,66,0.00,,,0.00,,2013-07-22 20:32:00,
2013-07-22 16:40:00,82.0,68.0,29.81,SE,128,1.0,4.0,63,0.00,,,0.00,,2013-07-22 20:40:00,
2013-07-22 17:01:00,82.0,68.0,29.81,SE,128,1.0,4.0,63,0.00,,,0.00,,2013-07-22 21:01:00,
2013-07-22 17:12:00,82.0,68.0,29.81,SE,128,1.0,4.0,63,0.00,,,0.00,,2013-07-22 21:12:00,
2013-07-22 17:22:00,82.0,68.0,29.81,SE,128,1.0,4.0,63,0.00,,,0.00,,2013-07-22 21:22:00,
2013-07-22 17:32:00,82.0,68.0,29.81,SE,128,1.0,4.0,63,0.00,,,0.00,,2013-07-22 21:32:00,
2013-07-22 17:40:00,81.0,70.0,29.80,NE,42,0.0,1.0,69,0.00,,,0.00,,2013-07-22 21:40:00,
2013-07-22 18:01:00,81.0,70.0,29.80,NE,42,0.0,1.0,69,0.00,,,0.00,,2013-07-22 22:01:00,
2013-07-22 18:11:00,81.0,70.0,29.80,NE,42,0.0,1.0,69,0.00,,,0.00,,2013-07-22 22:11:00,
2013-07-22 18:22:00,81.0,70.0,29.80,NE,42,0.0,1.0,69,0.00,,,0.00,,2013-07-22 22:22:00,
2013-07-22 18:32:00,81.0,70.0,29.80,NE,42,0.0,1.0,69,0.00,,,0.00,,2013-07-22 22:32:00,
2013-07-22 18:40:00,82.0,68.0,29.79,SSE,164,2.0,3.0,62,0.00,,,0.00,,2013-07-22 22:40:00,
2013-07-22 19:01:00,82.0,68.0,29.79,SSE,164,2.0,3.0,62,0.00,,,0.00,,2013-07-22 23:01:00,
2013-07-22 19:11:00,82.0,68.0,29.79,SSE,164,2.0,3.0,62,0.00,,,0.00,,2013-07-22 23:11:00,
2013-07-22 19:22:00,82.0,68.0,29.79,SSE,164,2.0,3.0,62,0.00,,,0.00,,2013-07-22 23:22:00,
2013-07-22 19:32:00,82.0,68.0,29.79,SSE,164,2.0,3.0,62,0.00,,,0.00,,2013-07-22 23:32:00,
2013-07-22 19:40:00,80.0,68.0,29.78,SW,222,2.0,3.0,68,0.00,,,0.00,,2013-07-22 23:40:00,
2013-07-22 20:01:00,80.0,68.0,29.78,SW,222,2.0,3.0,68,0.00,,,0.00,,2013-07-23 00:01:00,
2013-07-22 20:12:00,80.0,68.0,29.78,SW,222,2.0,3.0,68,0.00,,,0.00,,2013-07-23 00:12:00,
2013-07-22 20:22:00,80.0,68.0,29.78,SW,222,2.0,3.0,68,0.00,,,0.00,,2013-07-23 00:22:00,
2013-07-22 20:32:00,80.0,68.0,29.78,SW,222,2.0,3.0,68,0.00,,,0.00,,2013-07-23 00:32:00,
2013-07-22 20:40:00,77.0,70.0,29.78,South,171,0.0,1.0,79,0.00,,,0.00,,2013-07-23 00:40:00,
2013-07-22 21:01:00,77.0,70.0,29.78,South,171,0.0,1.0,79,0.00,,,0.00,,2013-07-23 01:01:00,
2013-07-22 21:11:00,77.0,70.0,29.78,South,171,0.0,1.0,79,0.00,,,0.00,,2013-07-23 01:11:00,
2013-07-22 21:22:00,77.0,70.0,29.78,South,171,0.0,1.0,79,0.00,,,0.00,,2013-07-23 01:22:00,
2013-07-22 21:32:00,77.0,70.0,29.78,South,171,0.0,1.0,79,0.00,,,0.00,,2013-07-23 01:32:00,
2013-07-22 21:40:00,72.0,69.0,29.79,South,171,0.0,0.0,91,0.00,,,0.00,,2013-07-23 01:40:00,
2013-07-22 22:11:00,72.0,69.0,29.79,South,171,0.0,0.0,91,0.00,,,0.00,,2013-07-23 02:11:00,
2013-07-22 22:22:00,72.0,69.0,29.79,South,171,0.0,0.0,91,0.00,,,0.00,,2013-07-23 02:22:00,
2013-07-22 22:33:00,72.0,69.0,29.79,South,171,0.0,0.0,91,0.00,,,0.00,,2013-07-23 02:33:00,
2013-07-22 22:40:00,70.0,68.0,29.79,North,360,1.0,1.0,94,0.00,,,0.00,,2013-07-23 02:40:00,
2013-07-22 23:02:00,70.0,68.0,29.79,North,360,1.0,1.0,94,0.00,,,0.00,,2013-07-23 03:02:00,
2013-07-22 23:11:00,70.0,68.0,29.79,North,360,1.0,1.0,94,0.00,,,0.00,,2013-07-23 03:11:00,
2013-07-22 23:22:00,70.0,68.0,29.79,North,360,1.0,1.0,94,0.00,,,0.00,,2013-07-23 03:22:00,
2013-07-22 23:33:00,70.0,68.0,29.79,North,360,1.0,1.0,94,0.00,,,0.00,,2013-07-23 03:33:00,
2013-07-22 23:40:00,70.0,68.0,29.80,South,171,0.0,1.0,95,0.00,,,0.00,,2013-07-23 03:40:00,